www.pogodaiklimat.ru

Погода и климат >> Архив погоды >> Индия >> Amritsar


ПОГОДА в Amritsar

  • Прогноз погоды в Amritsar
  • Монитор погоды в Amritsar
  • Климат города

АРХИВ ПОГОДЫ в Amritsar

Время (UTC), дата Ветер
(напр.,м/с)
 
Видим.   Явления Облачность Т
(С)
Тd
(С)
f
(%)
Тe
(С)
Тes
(С)
Комфортность P
(гПа)
Po
(гПа)
Тmin
(С)
Tmax
(С)
R
(мм)
R24
(мм)
S
(см)
12 12.07 штиль 0 2000 м мгла 8/4 1200 м
[Sc diur, vesp Ac trans]
+30.0 +24.6 73 +43 +44 опасность
перегрева
993.3 993.0 +32.6
15 12.07 штиль 0 2000 м мгла 6/3 1200 м
[Sc diur, vesp Ac trans]
+30.6 +25.2 73 +44 +44 опасность
перегрева
993.6 994.0
18 12.07 нст 1 2000 м дымка 6/3 1200 м
[Sc diur, vesp Ac trans]
+30.0 +25.8 78 +45 +45 опасность
перегрева
995.8 996.0
21 12.07 штиль 0 2000 м дымка 6/3 1200 м
[Sc diur, vesp Ac trans]
+29.0 +25.6 82 +43 +43 опасность
перегрева
995.4 995.0
00 13.07 В 2 2000 м дымка 9/4 1200 м
[Sc diur, vesp Ac As]
+25.5 +26.6 100 +37 +37 очень
душно
995.4 995.0
03 13.07 В 7 2000 м дымка 9/4 1050 м
[Sc diur, vesp Ac lent]
+27.2 +24.3 84 +38 +39 очень
душно
998.0 998.0 +26.4 +32.6
06 13.07 нст 1 1000 м слабый дождь {гроза} 9/5 1050 м
[Cb cap Ac As]
+25.4 +24.5 95 +36 +41 очень
душно
1000.5 1001.0 11
09 13.07 В 3 4000 м дымка {гроза, дождь} 3/0
[Ac trans]
+30.0 +26.9 84 +47 +59 опасность
перегрева
997.7 998.0 11
12 13.07 нст 1 4000 м мгла 1/0
[Ac trans]
+31.4 +25.2 70 +45 +49 опасность
перегрева
995.3 995.0 +32.3 11
15 13.07 штиль 0 4000 м мгла 3/0
[Ac trans]
+29.6 +24.8 75 +42 +42 опасность
перегрева
996.1 996.0 11
18 13.07 штиль 0 4000 м дымка 1/0
[Ac trans]
+28.5 +24.9 81 +41 +41 опасность
перегрева
997.8 998.0 11
21 13.07 штиль 0 2000 м дымка 3/0
[Ac trans]
+27.4 +26.0 92 +41 +41 опасность
перегрева
997.7 998.0 11
00 14.07 штиль 0 2000 м дымка 6/4 1200 м
[Sc diur, vesp Ac trans]
+27.4 +26.0 92 +41 +41 опасность
перегрева
997.7 998.0 11
03 14.07 нст 1 2000 м дымка 4/4 1200 м
[Sc diur, vesp]
+30.0 +27.2 85 +48 +53 опасность
перегрева
997.9 998.0 +26.6 +32.3 11
06 14.07 нст 1 2000 м мгла 3/3 1200 м
[Sc diur, vesp]
+33.4 +27.1 70 +52 +69 опасность
перегрева
997.3 997.0
09 14.07 нст 1 4000 м мгла 6/4 1200 м
[Sc diur, vesp Ac trans]
+34.0 +25.6 62 +49 +59 опасность
перегрева
995.6 996.0
12 14.07 нст 1 4000 м мгла 6/4 1200 м
[Sc diur, vesp Ac trans]
+34.6 +26.6 63 +52 +54 опасность
перегрева
993.7 994.0 +35.8
15 14.07 штиль 0 4000 м дымка 3/0
[Ac trans]
+32.2 +28.1 79 +53 +53 опасность
перегрева
993.6 994.0
18 14.07 ЮВ 4 4000 м дымка 3/0
[Ac trans]
+31.0 +28.3 86 +52 +52 опасность
перегрева
995.9 996.0
21 14.07 ЮВ 3 2000 м дымка 4/3 1200 м
[Sc diur, vesp Ac trans]
+29.4 +27.6 90 +48 +48 опасность
перегрева
996.6 997.0
00 15.07 нст 1 2000 м дымка 6/3 1200 м
[Sc diur, vesp Ac trans]
+28.6 +28.6 100 +49 +49 опасность
перегрева
996.9 997.0
03 15.07 В 4 2000 м дымка 5/4 1200 м
[Sc diur, vesp Ac trans]
+30.0 +25.8 78 +45 +47 опасность
перегрева
997.7 998.0 +27.4 +35.8
06 15.07 нст 1 4000 м мгла 5/4 1200 м
[Sc diur, vesp Ac trans]
+33.2 +24.4 60 +46 +59 опасность
перегрева
998.0 998.0
09 15.07 ЮВ 4 4000 м 5/4 1200 м
[Sc diur, vesp Ac trans]
+34.8 +22.3 48 +44 +50 опасность
перегрева
995.5 996.0
12 15.07 В 2 4000 м 4/3 1200 м
[Sc diur, vesp Ac trans]
+35.4 +23.0 49 +45 +48 опасность
перегрева
993.6 994.0 +36.2
15 15.07 штиль 0 4000 м мгла 3/3 1200 м
[Sc diur, vesp]
+32.8 +27.0 72 +51 +51 опасность
перегрева
994.3 994.0
18 15.07 штиль 0 4000 м дымка 3/3 1200 м
[Sc diur, vesp]
+31.2 +27.6 81 +50 +50 опасность
перегрева
996.1 996.0
21 15.07 штиль 0 4000 м дымка 3/3 1200 м
[Sc diur, vesp]
+30.6 +29.5 94 +55 +55 опасность
перегрева
996.2 996.0
00 16.07 штиль 0 4000 м дымка ясно +30.0 +28.6 92 +51 +51 опасность
перегрева
996.4 996.0
03 16.07 нст 1 4000 м дымка 8/4 1200 м
[Sc diur, vesp Ac trans]
+31.4 +27.3 79 +50 +53 опасность
перегрева
997.4 997.0 +29.0 +36.2
06 16.07 В 5 4000 м гроза, ливневой дождь 10/5 1050 м
[Cb cap As op]
+28.6 +25.2 82 +42 +43 опасность
перегрева
999.2 999.0 1
09 16.07 В 5 4000 м мгла {гроза, дождь} 8/4 1200 м
[Sc diur, vesp Ac As]
+32.0 +25.2 67 +46 +49 опасность
перегрева
996.0 996.0 1
12 16.07 нст 2 4000 м мгла 4/3 1200 м
[Sc diur, vesp Ac trans]
+33.0 +24.2 60 +45 +48 опасность
перегрева
994.7 995.0 +33.8 1
18 16.07 ЮВ 3 4000 м мгла 8/4 1200 м
[Sc diur, vesp Ac As]
+30.0 +23.7 69 +41 +41 опасность
перегрева
997.4 997.0 1
21 16.07 штиль 0 4000 м мгла 8/4 1200 м
[Sc diur, vesp Ac As]
+29.4 +23.9 72 +40 +40 очень
душно
997.5 998.0 1
00 17.07 нст 1 4000 м дымка 8/4 1200 м
[Sc diur, vesp Ac As]
+28.4 +24.4 79 +40 +40 очень
душно
998.0 998.0 1
03 17.07 В 3 2000 м дымка 9/4 1200 м
[Sc diur, vesp Ac As]
+29.6 +27.4 88 +48 +49 опасность
перегрева
998.6 999.0 +26.7 +33.8 1
06 17.07 ЮВ 4 2000 м мгла 9/4 1200 м
[Sc diur, vesp Ac As]
+32.0 +26.4 72 +48 +52 опасность
перегрева
998.7 999.0
09 17.07 ЮВ 4 4000 м мгла 8/4 1200 м
[Sc diur, vesp Ac As]
+33.2 +24.4 60 +46 +50 опасность
перегрева
997.8 998.0
12 17.07 нст 1 2000 м мгла 6/3 1200 м
[Sc diur, vesp Ac As]
+33.4 +22.7 54 +43 +45 опасность
перегрева
995.5 996.0 +34.5
15 17.07 штиль 0 2000 м мгла 4/3 1200 м
[Sc diur, vesp Ac trans]
+30.6 +25.2 73 +44 +44 опасность
перегрева
996.4 996.0
18 17.07 штиль 0 2000 м дымка 4/3 1200 м
[Sc diur, vesp Ac trans]
+29.4 +25.7 81 +44 +44 опасность
перегрева
998.5 999.0
21 17.07 штиль 0 2000 м дымка 4/3 1200 м
[Sc diur, vesp Ac trans]
+28.7 +25.8 84 +43 +43 опасность
перегрева
998.2 998.0
00 18.07 нст 1 2000 м мгла 3/0
[Ac trans]
+28.2 +25.7 86 +42 +42 опасность
перегрева
997.5 998.0
03 18.07 Ю 2 2000 м мгла 3/0
[Ac trans]
+31.0 +25.4 72 +45 +52 опасность
перегрева
998.8 999.0 +27.0 +34.5
06 18.07 ЮВ 5 2000 м мгла 8/4 1050 м
[Cb calv Ac As]
+31.4 +23.6 63 +42 +46 опасность
перегрева
999.9 1000.0
09 18.07 нст 1 2000 м мгла 5/3 1200 м
[Sc diur, vesp Ac As]
+35.0 +21.9 47 +44 +55 опасность
перегрева
997.1 997.0
12 18.07 ЮВ 4 2000 м мгла 6/3 1200 м
[Sc diur, vesp Ac As]
+33.2 +21.4 50 +41 +42 опасность
перегрева
996.3 996.0 +36.5
15 18.07 ЮВ 2 2000 м мгла 4/4 1200 м
[Sc diur, vesp]
+31.4 +22.3 59 +41 +41 опасность
перегрева
997.3 997.0
18 18.07 штиль 0 2000 м дымка {гроза} 5/3 1200 м
[Sc diur, vesp Ac As]
+29.4 +24.5 75 +42 +42 опасность
перегрева
998.5 999.0
21 18.07 штиль 0 2000 м дымка 5/3 1200 м
[Sc diur, vesp Ac As]
+27.8 +26.0 90 +42 +42 опасность
перегрева
998.2 998.0
00 19.07 нст 1 2000 м дымка 6/3 1200 м
[Sc diur, vesp Ac trans]
+27.4 +25.4 89 +40 +40 очень
душно
999.0 999.0
03 19.07 штиль 0 2000 м мгла ясно +29.8 +25.9 80 +45 +55 опасность
перегрева
999.2 999.0 +26.6 +36.5
06 19.07 нст 1 4000 м мгла ясно +33.4 +24.0 58 +45 +69 опасность
перегрева
999.5 1000.0

 

Местоположение метеостанции Amritsar (Punjab, Индия): широта 31.63 долгота 74.87 высота над уровнем моря 234 м.

В архиве по умолчанию представлена погода в Amritsar за последнюю неделю. Архивные данные за месяц целиком и за предыдущие месяцы, начиная с января 2011 года, Вы можете получить, выбрав интересующий диапазон дат из раскрывающегося списка и нажав кнопку "Ввод!".


*Определитесь, кто Вы:
робот инопланетянин человек

Внимание! Время в таблицах - всемирное. Для получения местного времени необходимо прибавить поправку, которая в Amritsar равна 5.5 ч.

Смотрите также архив погоды в соседних городах и на ближайших метеорологических станциях:

Погода в Lahore City (Пакистан) (52 км)
Погода в Sialkot (Пакистан) (102 км)
Погода в Jammu (Jammu and Kashmir, Индия) (116 км)
Погода в Ludhiana (Punjab, Индия) (132 км)
Погода в Una (Himachal Pradesh, Индия) (134 км)
Погода в Kangra (Himachal Pradesh, Индия) (142 км)
Погода в Katra (Jammu and Kashmir, Индия) (151 км)
Погода в Dharamsala (Himachal Pradesh, Индия) (159 км)
Погода в Batote (Jammu and Kashmir, Индия) (169 км)
Погода в Faisal Abad (Пакистан) (169 км)

Пояснения к столбцам:

Ветер - указаны скорость ветра в м/с - средняя за 10 мин, порывы в срок и между сроками (в фигурных скобках) и направление, откуда дует ветер: С - северный, СВ - северо-восточный, В - восточный, ЮВ - юго-восточный, Ю - южный, ЮЗ - юго-западный, З - западный, СЗ - северо-западный.
Видимость - горизонтальная дальность видимости в метрах или километрах. При видимости от 1 до 10 км при отсутствии осадков обычно наблюдается дымка, при ухудшении видимости до 1 км и менее - туман. В сухую погоду видимость может ухудшаться дымом, пылью или мглою.
Явления - указаны атмосферные явления, наблюдавшиеся в срок или в последний час перед сроком; фигурными скобками обозначены явления, наблюдавшиеся между сроками (за 1-3 часа до срока); квадратными скобками обозначены град или гололедные отложения с указанием их диаметра в мм.
Облачность - указаны через наклонную черту общая и нижняя облачность в баллах и высота нижней границы облаков в метрах; квадратными скобками обозначены формы облаков: Ci - перистые, Cs - перисто-слоистые, Cc - перисто-кучевые, Ac - высококучевые, As - высокослоистые, Sc - слоисто-кучевые, Ns - слоисто-дождевые, Cu - кучевые, Cb - кучево-дождевые. Подробнее классификацию облаков см. в Атласе облаков (PDF).
T - Температура воздуха - температура, измеренная на высоте 2 м над землей.
Td - Температура точки росы - температура, при понижении до которой содержащийся в воздухе водяной пар достигнет насыщения.
f - Относительная влажность воздуха - влажноcть воздуха, измеренная на высоте 2 м над землей.
Te - Эффективная температура - температура, которую ощущает одетый по сезону человек в тени. Характеристика душности погоды. При расчете учитывается влияние влажности воздуха и скорости ветра на теплоощущения человека.
Tes - Эффективная температура на солнце - температура, которую ощущает человек, с поправкой на солнечный нагрев. Характеристика знойности погоды. Зависит от высоты солнца над горизонтом, облачности и скорости ветра. Ночью, в пасмурную погоду, а также при ветре 12 м/с и более поправка равна нулю.
P - Атмосферное давление - приведенное к уровню моря атмосферное давление.
Po - Атмосферное давление - измеренное на уровне метеостанции атмосферное давление.
Tmin - Минимальная температура - минимум температуры воздуха на высоте 2 м над землей.
Tmax - Максимальная температура - максимум температуры воздуха на высоте 2 м над землей.
R - Количество осадков - Количество выпавших осадков за период времени, мм. При наведении курсора мыши на число - период времени, за который выпало указанное количество осадков.
R24 - Количество осадков - Количество выпавших осадков за 24 часа, мм.
S - Снежный покров - Высота снежного покрова, см. При наведении курсора мыши на число - состояние снежного покрова и степень покрытия местности в баллах.